M I D A S
Marine Information and Data Acquisition System
Tripno 1480 of the Zeeleeuw from 2008-05-06 12:10:16 to 2008-05-06 13:47:56
Back to CruiseResearch ActivitiesStationsMapUnderway DataData graphs

EquipmentUnitsComments
TimeDGPSUTC
LatitudeDGPSDM.mWGS84
LongitudeDGPSDM.mWGS84
SpeedMeteo Stationm/sRelative wind speed
DirectionMeteo StationdegRelative wind direction
TemperatureMeteo Stationdeg CelciusAir temperature
PressureMeteo StationPaAtmospheric pressure
HumidityMeteo Station%Relative humidity
Missing or incorrect values are displayed as -999
Metereological data collected by the RV Zeeleeuw from 2008-05-06 08:21:52 to 2008-05-06 14:00:11
Time Latitude Longitude Speed Direction Temperature Pressure Humidity
2008-05-06 08:22 51°13.689 2°55.897 -999 -999 -999 -999 -999
2008-05-06 08:23 51°13.714 2°55.794 -999 -999 -999 -999 -999
2008-05-06 08:24 51°13.721 2°55.743 -999 -999 -999 -999 -999
2008-05-06 08:25 51°13.723 2°55.715 -999 -999 -999 -999 -999
2008-05-06 08:26 51°13.757 2°55.694 -999 -999 -999 -999 -999
2008-05-06 08:27 51°13.798 2°55.657 -999 -999 -999 -999 -999
2008-05-06 08:28 51°13.85 2°55.635 -999 -999 -999 -999 -999
2008-05-06 08:29 51°13.905 2°55.64 -999 -999 -999 -999 -999
2008-05-06 08:30 51°13.935 2°55.641 -999 -999 -999 -999 -999
2008-05-06 08:31 51°13.95 2°55.636 -999 -999 -999 -999 -999
2008-05-06 08:32 51°13.949 2°55.635 -999 -999 -999 -999 -999
2008-05-06 08:33 51°13.949 2°55.632 -999 -999 -999 -999 -999
2008-05-06 08:34 51°13.951 2°55.629 -999 -999 -999 -999 -999
2008-05-06 08:35 51°13.953 2°55.627 -999 -999 -999 -999 -999
2008-05-06 08:36 51°13.954 2°55.624 -999 -999 -999 -999 -999
2008-05-06 08:37 51°13.971 2°55.606 -999 -999 -999 -999 -999
2008-05-06 08:38 51°14.059 2°55.5 -999 -999 -999 -999 -999
2008-05-06 08:39 51°14.172 2°55.374 -999 -999 -999 -999 -999
2008-05-06 08:40 51°14.275 2°55.241 -999 -999 -999 -999 -999
2008-05-06 08:41 51°14.357 2°55.098 -999 -999 -999 -999 -999
2008-05-06 08:42 51°14.43 2°54.885 -999 -999 -999 -999 -999
2008-05-06 08:43 51°14.511 2°54.579 -999 -999 -999 -999 -999
2008-05-06 08:44 51°14.563 2°54.243 -999 -999 -999 -999 -999
2008-05-06 08:45 51°14.6 2°53.897 -999 -999 -999 -999 -999
2008-05-06 08:46 51°14.623 2°53.557 -999 -999 -999 -999 -999
2008-05-06 08:47 51°14.639 2°53.217 -999 -999 -999 -999 -999
2008-05-06 08:48 51°14.648 2°52.872 -999 -999 -999 -999 -999
2008-05-06 08:49 51°14.636 2°52.522 -999 -999 -999 -999 -999
2008-05-06 08:50 51°14.603 2°52.173 -999 -999 -999 -999 -999
2008-05-06 08:51 51°14.57 2°51.824 -999 -999 -999 -999 -999
2008-05-06 08:52 51°14.54 2°51.475 -999 -999 -999 -999 -999
2008-05-06 08:53 51°14.508 2°51.245 -999 -999 -999 -999 -999
2008-05-06 08:54 51°14.494 2°51.144 -999 -999 -999 -999 -999
2008-05-06 08:55 51°14.478 2°51.07 -999 -999 -999 -999 -999
2008-05-06 08:56 51°14.461 2°50.974 -999 -999 -999 -999 -999
2008-05-06 08:57 51°14.452 2°50.865 -999 -999 -999 -999 -999
2008-05-06 08:58 51°14.447 2°50.775 -999 -999 -999 -999 -999
2008-05-06 08:59 51°14.442 2°50.699 -999 -999 -999 -999 -999
2008-05-06 09:00 51°14.433 2°50.618 -999 -999 -999 -999 -999
2008-05-06 09:01 51°14.423 2°50.532 -999 -999 -999 -999 -999
2008-05-06 09:02 51°14.414 2°50.446 -999 -999 -999 -999 -999
2008-05-06 09:03 51°14.403 2°50.359 -999 -999 -999 -999 -999
2008-05-06 09:04 51°14.389 2°50.274 -999 -999 -999 -999 -999
2008-05-06 09:05 51°14.374 2°50.19 -999 -999 -999 -999 -999
2008-05-06 09:06 51°14.358 2°50.107 -999 -999 -999 -999 -999
2008-05-06 09:07 51°14.342 2°50.024 -999 -999 -999 -999 -999
2008-05-06 09:08 51°14.323 2°49.941 -999 -999 -999 -999 -999
2008-05-06 09:09 51°14.305 2°49.859 -999 -999 -999 -999 -999
2008-05-06 09:10 51°14.285 2°49.777 -999 -999 -999 -999 -999
2008-05-06 09:11 51°14.264 2°49.696 -999 -999 -999 -999 -999
2008-05-06 09:12 51°14.243 2°49.616 -999 -999 -999 -999 -999
2008-05-06 09:13 51°14.221 2°49.536 -999 -999 -999 -999 -999
2008-05-06 09:14 51°14.199 2°49.457 -999 -999 -999 -999 -999
2008-05-06 09:15 51°14.177 2°49.378 -999 -999 -999 -999 -999
2008-05-06 09:16 51°14.156 2°49.299 -999 -999 -999 -999 -999
2008-05-06 09:17 51°14.135 2°49.22 -999 -999 -999 -999 -999
2008-05-06 09:18 51°14.114 2°49.14 -999 -999 -999 -999 -999
2008-05-06 09:19 51°14.094 2°49.061 -999 -999 -999 -999 -999
2008-05-06 09:20 51°14.074 2°48.982 -999 -999 -999 -999 -999
2008-05-06 09:21 51°14.055 2°48.903 -999 -999 -999 -999 -999
2008-05-06 09:22 51°14.037 2°48.824 -999 -999 -999 -999 -999
2008-05-06 09:23 51°14.02 2°48.745 -999 -999 -999 -999 -999
2008-05-06 09:24 51°14.004 2°48.667 -999 -999 -999 -999 -999
2008-05-06 09:25 51°13.989 2°48.588 -999 -999 -999 -999 -999
2008-05-06 09:26 51°13.974 2°48.51 -999 -999 -999 -999 -999
2008-05-06 09:27 51°13.96 2°48.434 -999 -999 -999 -999 -999
2008-05-06 09:28 51°13.952 2°48.361 -999 -999 -999 -999 -999
2008-05-06 09:29 51°13.946 2°48.301 -999 -999 -999 -999 -999
2008-05-06 09:30 51°13.938 2°48.249 -999 -999 -999 -999 -999
2008-05-06 09:31 51°13.928 2°48.202 -999 -999 -999 -999 -999
2008-05-06 09:32 51°13.918 2°48.156 -999 -999 -999 -999 -999
2008-05-06 09:33 51°13.937 2°48.11 -999 -999 -999 -999 -999
2008-05-06 09:34 51°13.957 2°48.138 -999 -999 -999 -999 -999
2008-05-06 09:35 51°13.959 2°48.215 -999 -999 -999 -999 -999
2008-05-06 09:36 51°13.976 2°48.302 -999 -999 -999 -999 -999
2008-05-06 09:37 51°13.997 2°48.408 -999 -999 -999 -999 -999
2008-05-06 09:38 51°14.019 2°48.528 -999 -999 -999 -999 -999
2008-05-06 09:39 51°14.041 2°48.658 -999 -999 -999 -999 -999
2008-05-06 09:40 51°14.071 2°48.822 -999 -999 -999 -999 -999
2008-05-06 09:41 51°14.104 2°49.003 -999 -999 -999 -999 -999
2008-05-06 09:42 51°14.14 2°49.193 -999 -999 -999 -999 -999
2008-05-06 09:43 51°14.168 2°49.389 -999 -999 -999 -999 -999
2008-05-06 09:44 51°14.19 2°49.589 -999 -999 -999 -999 -999
2008-05-06 09:45 51°14.212 2°49.791 -999 -999 -999 -999 -999
2008-05-06 09:46 51°14.236 2°50.004 -999 -999 -999 -999 -999
2008-05-06 09:47 51°14.261 2°50.226 -999 -999 -999 -999 -999
2008-05-06 09:48 51°14.288 2°50.442 -999 -999 -999 -999 -999
2008-05-06 09:49 51°14.316 2°50.662 -999 -999 -999 -999 -999
2008-05-06 09:50 51°14.346 2°50.887 -999 -999 -999 -999 -999
2008-05-06 09:51 51°14.377 2°51.106 -999 -999 -999 -999 -999
2008-05-06 09:52 51°14.409 2°51.334 -999 -999 -999 -999 -999
2008-05-06 09:53 51°14.44 2°51.556 -999 -999 -999 -999 -999
2008-05-06 09:54 51°14.472 2°51.789 -999 -999 -999 -999 -999
2008-05-06 09:55 51°14.504 2°52.058 -999 -999 -999 -999 -999
2008-05-06 09:56 51°14.536 2°52.358 -999 -999 -999 -999 -999
2008-05-06 09:57 51°14.556 2°52.658 -999 -999 -999 -999 -999
2008-05-06 09:58 51°14.576 2°52.959 -999 -999 -999 -999 -999
2008-05-06 09:59 51°14.588 2°53.26 -999 -999 -999 -999 -999
2008-05-06 10:00 51°14.594 2°53.562 -999 -999 -999 -999 -999
2008-05-06 10:01 51°14.583 2°53.865 -999 -999 -999 -999 -999
2008-05-06 10:02 51°14.551 2°54.156 -999 -999 -999 -999 -999
2008-05-06 10:03 51°14.492 2°54.447 -999 -999 -999 -999 -999
2008-05-06 10:04 51°14.43 2°54.714 -999 -999 -999 -999 -999
2008-05-06 10:05 51°14.363 2°54.979 -999 -999 -999 -999 -999
2008-05-06 10:06 51°14.3 2°55.177 -999 -999 -999 -999 -999
2008-05-06 10:07 51°14.217 2°55.324 -999 -999 -999 -999 -999
2008-05-06 10:08 51°14.113 2°55.433 -999 -999 -999 -999 -999
2008-05-06 10:09 51°14.012 2°55.506 -999 -999 -999 -999 -999
2008-05-06 10:10 51°13.922 2°55.569 -999 -999 -999 -999 -999
2008-05-06 10:11 51°13.842 2°55.628 -999 -999 -999 -999 -999
2008-05-06 10:12 51°13.77 2°55.694 -999 -999 -999 -999 -999
2008-05-06 10:13 51°13.72 2°55.78 -999 -999 -999 -999 -999
2008-05-06 10:14 51°13.687 2°55.874 -999 -999 -999 -999 -999
2008-05-06 10:15 51°13.67 2°55.941 -999 -999 -999 -999 -999
2008-05-06 10:16 51°13.666 2°55.953 -999 -999 -999 -999 -999
2008-05-06 10:17 51°13.665 2°55.953 -999 -999 -999 -999 -999
2008-05-06 10:18 51°13.666 2°55.954 -999 -999 -999 -999 -999
2008-05-06 10:19 51°13.666 2°55.954 -999 -999 -999 -999 -999
2008-05-06 10:20 51°13.666 2°55.955 -999 -999 -999 -999 -999
2008-05-06 10:21 51°13.666 2°55.955 -999 -999 -999 -999 -999
2008-05-06 10:22 51°13.665 2°55.955 -999 -999 -999 -999 -999
2008-05-06 10:23 51°13.665 2°55.955 -999 -999 -999 -999 -999
2008-05-06 10:24 51°13.666 2°55.955 -999 -999 -999 -999 -999
2008-05-06 10:25 51°13.665 2°55.955 -999 -999 -999 -999 -999
2008-05-06 10:26 51°13.666 2°55.955 -999 -999 -999 -999 -999
2008-05-06 10:27 51°13.666 2°55.954 -999 -999 -999 -999 -999
2008-05-06 10:28 51°13.665 2°55.955 -999 -999 -999 -999 -999
2008-05-06 10:29 51°13.665 2°55.955 -999 -999 -999 -999 -999
2008-05-06 10:30 51°13.665 2°55.955 -999 -999 -999 -999 -999
2008-05-06 10:31 51°13.665 2°55.955 -999 -999 -999 -999 -999
2008-05-06 10:32 51°13.666 2°55.955 -999 -999 -999 -999 -999
2008-05-06 10:33 51°13.666 2°55.955 -999 -999 -999 -999 -999
2008-05-06 10:34 51°13.665 2°55.955 -999 -999 -999 -999 -999
2008-05-06 10:35 51°13.665 2°55.955 -999 -999 -999 -999 -999
2008-05-06 10:36 51°13.666 2°55.956 -999 -999 -999 -999 -999
2008-05-06 10:37 51°13.665 2°55.955 -999 -999 -999 -999 -999
2008-05-06 10:38 51°13.665 2°55.956 -999 -999 -999 -999 -999
2008-05-06 10:39 51°13.665 2°55.955 -999 -999 -999 -999 -999
2008-05-06 10:40 51°13.665 2°55.955 -999 -999 -999 -999 -999
2008-05-06 10:41 51°13.665 2°55.954 -999 -999 -999 -999 -999
2008-05-06 10:42 51°13.665 2°55.954 -999 -999 -999 -999 -999
2008-05-06 10:43 51°13.665 2°55.954 -999 -999 -999 -999 -999
2008-05-06 10:44 51°13.665 2°55.954 -999 -999 -999 -999 -999
2008-05-06 10:45 51°13.665 2°55.955 -999 -999 -999 -999 -999
2008-05-06 10:46 51°13.665 2°55.955 -999 -999 -999 -999 -999
2008-05-06 10:47 51°13.665 2°55.955 -999 -999 -999 -999 -999
2008-05-06 10:48 51°13.666 2°55.954 -999 -999 -999 -999 -999
2008-05-06 10:49 51°13.666 2°55.955 -999 -999 -999 -999 -999
2008-05-06 10:50 51°13.667 2°55.955 -999 -999 -999 -999 -999
2008-05-06 10:51 51°13.667 2°55.955 -999 -999 -999 -999 -999
2008-05-06 10:52 51°13.666 2°55.955 -999 -999 -999 -999 -999
2008-05-06 10:53 51°13.667 2°55.955 -999 -999 -999 -999 -999
2008-05-06 10:54 51°13.667 2°55.955 -999 -999 -999 -999 -999
2008-05-06 10:55 51°13.667 2°55.956 -999 -999 -999 -999 -999
2008-05-06 10:56 51°13.667 2°55.956 -999 -999 -999 -999 -999
2008-05-06 10:57 51°13.667 2°55.956 -999 -999 -999 -999 -999
2008-05-06 10:58 51°13.666 2°55.954 -999 -999 -999 -999 -999
2008-05-06 10:59 51°13.666 2°55.955 -999 -999 -999 -999 -999
2008-05-06 11:00 51°13.665 2°55.954 -999 -999 -999 -999 -999
2008-05-06 11:01 51°13.666 2°55.954 -999 -999 -999 -999 -999
2008-05-06 11:02 51°13.666 2°55.954 -999 -999 -999 -999 -999
2008-05-06 11:03 51°13.666 2°55.955 -999 -999 -999 -999 -999
2008-05-06 11:04 51°13.666 2°55.954 -999 -999 -999 -999 -999
2008-05-06 11:05 51°13.666 2°55.955 -999 -999 -999 -999 -999
2008-05-06 11:06 51°13.666 2°55.955 -999 -999 -999 -999 -999
2008-05-06 11:07 51°13.666 2°55.954 -999 -999 -999 -999 -999
2008-05-06 11:08 51°13.666 2°55.955 -999 -999 -999 -999 -999
2008-05-06 11:09 51°13.666 2°55.955 -999 -999 -999 -999 -999
2008-05-06 11:10 51°13.666 2°55.955 -999 -999 -999 -999 -999
2008-05-06 11:11 51°13.666 2°55.955 -999 -999 -999 -999 -999
2008-05-06 11:12 51°13.665 2°55.956 -999 -999 -999 -999 -999
2008-05-06 11:13 51°13.666 2°55.956 -999 -999 -999 -999 -999
2008-05-06 11:14 51°13.666 2°55.957 -999 -999 -999 -999 -999
2008-05-06 11:15 51°13.666 2°55.956 -999 -999 -999 -999 -999
2008-05-06 11:16 51°13.666 2°55.956 -999 -999 -999 -999 -999
2008-05-06 11:17 51°13.665 2°55.956 -999 -999 -999 -999 -999
2008-05-06 11:18 51°13.665 2°55.956 -999 -999 -999 -999 -999
2008-05-06 11:19 51°13.665 2°55.956 -999 -999 -999 -999 -999
2008-05-06 11:20 51°13.666 2°55.956 -999 -999 -999 -999 -999
2008-05-06 11:21 51°13.665 2°55.956 -999 -999 -999 -999 -999
2008-05-06 11:22 51°13.665 2°55.956 -999 -999 -999 -999 -999
2008-05-06 11:23 51°13.665 2°55.956 -999 -999 -999 -999 -999
2008-05-06 11:24 51°13.666 2°55.955 -999 -999 -999 -999 -999
2008-05-06 11:25 51°13.666 2°55.955 -999 -999 -999 -999 -999
2008-05-06 11:26 51°13.665 2°55.954 -999 -999 -999 -999 -999
2008-05-06 11:27 51°13.665 2°55.954 -999 -999 -999 -999 -999
2008-05-06 11:28 51°13.665 2°55.954 -999 -999 -999 -999 -999
2008-05-06 11:29 51°13.665 2°55.955 -999 -999 -999 -999 -999
2008-05-06 11:30 51°13.665 2°55.954 -999 -999 -999 -999 -999
2008-05-06 11:31 51°13.665 2°55.955 -999 -999 -999 -999 -999
2008-05-06 11:32 51°13.666 2°55.955 -999 -999 -999 -999 -999
2008-05-06 11:33 51°13.665 2°55.954 -999 -999 -999 -999 -999
2008-05-06 11:34 51°13.666 2°55.954 -999 -999 -999 -999 -999
2008-05-06 11:35 51°13.666 2°55.955 -999 -999 -999 -999 -999
2008-05-06 11:36 51°13.666 2°55.954 -999 -999 -999 -999 -999
2008-05-06 11:37 51°13.666 2°55.954 -999 -999 -999 -999 -999
2008-05-06 11:38 51°13.665 2°55.953 -999 -999 -999 -999 -999
2008-05-06 11:39 51°13.666 2°55.954 -999 -999 -999 -999 -999
2008-05-06 11:40 51°13.666 2°55.954 -999 -999 -999 -999 -999
2008-05-06 11:41 51°13.666 2°55.954 -999 -999 -999 -999 -999
2008-05-06 11:42 51°13.666 2°55.955 -999 -999 -999 -999 -999
2008-05-06 11:43 51°13.666 2°55.955 -999 -999 -999 -999 -999
2008-05-06 11:44 51°13.666 2°55.954 -999 -999 -999 -999 -999
2008-05-06 11:45 51°13.666 2°55.954 -999 -999 -999 -999 -999
2008-05-06 11:46 51°13.666 2°55.955 -999 -999 -999 -999 -999
2008-05-06 11:47 51°13.665 2°55.955 -999 -999 -999 -999 -999
2008-05-06 11:48 51°13.665 2°55.956 -999 -999 -999 -999 -999
2008-05-06 11:49 51°13.665 2°55.956 -999 -999 -999 -999 -999
2008-05-06 11:50 51°13.665 2°55.956 -999 -999 -999 -999 -999
2008-05-06 11:51 51°13.665 2°55.956 -999 -999 -999 -999 -999
2008-05-06 11:52 51°13.665 2°55.957 -999 -999 -999 -999 -999
2008-05-06 11:53 51°13.665 2°55.956 -999 -999 -999 -999 -999
2008-05-06 11:54 51°13.665 2°55.956 -999 -999 -999 -999 -999
2008-05-06 11:55 51°13.666 2°55.956 -999 -999 -999 -999 -999
2008-05-06 11:56 51°13.665 2°55.955 -999 -999 -999 -999 -999
2008-05-06 11:57 51°13.665 2°55.955 -999 -999 -999 -999 -999
2008-05-06 11:58 51°13.665 2°55.955 -999 -999 -999 -999 -999
2008-05-06 11:59 51°13.665 2°55.956 -999 -999 -999 -999 -999
2008-05-06 12:00 51°13.664 2°55.956 -999 -999 -999 -999 -999
2008-05-06 12:01 51°13.664 2°55.957 -999 -999 -999 -999 -999
2008-05-06 12:02 51°13.663 2°55.956 -999 -999 -999 -999 -999
2008-05-06 12:03 51°13.663 2°55.956 -999 -999 -999 -999 -999
2008-05-06 12:04 51°13.663 2°55.955 -999 -999 -999 -999 -999
2008-05-06 12:05 51°13.664 2°55.955 -999 -999 -999 -999 -999
2008-05-06 12:06 51°13.664 2°55.955 -999 -999 -999 -999 -999
2008-05-06 12:07 51°13.665 2°55.955 -999 -999 -999 -999 -999
2008-05-06 12:08 51°13.665 2°55.955 -999 -999 -999 -999 -999
2008-05-06 12:09 51°13.666 2°55.955 -999 -999 -999 -999 -999
2008-05-06 12:10 51°13.666 2°55.955 -999 -999 -999 -999 -999
2008-05-06 12:11 51°13.666 2°55.954 -999 -999 -999 -999 -999
2008-05-06 12:12 51°13.666 2°55.954 -999 -999 -999 -999 -999
2008-05-06 12:13 51°13.666 2°55.954 -999 -999 -999 -999 -999
2008-05-06 12:14 51°13.68 2°55.92 -999 -999 -999 -999 -999
2008-05-06 12:15 51°13.715 2°55.826 -999 -999 -999 -999 -999
2008-05-06 12:16 51°13.762 2°55.718 -999 -999 -999 -999 -999
2008-05-06 12:17 51°13.825 2°55.634 -999 -999 -999 -999 -999
2008-05-06 12:18 51°13.896 2°55.628 -999 -999 -999 -999 -999
2008-05-06 12:19 51°13.944 2°55.671 -999 -999 -999 -999 -999
2008-05-06 12:20 51°13.951 2°55.655 -999 -999 -999 -999 -999
2008-05-06 12:21 51°13.973 2°55.592 -999 -999 -999 -999 -999
2008-05-06 12:22 51°14.019 2°55.524 -999 -999 -999 -999 -999
2008-05-06 12:23 51°14.082 2°55.464 -999 -999 -999 -999 -999
2008-05-06 12:24 51°14.153 2°55.405 -999 -999 -999 -999 -999
2008-05-06 12:25 51°14.232 2°55.291 -999 -999 -999 -999 -999
2008-05-06 12:26 51°14.325 2°55.115 -999 -999 -999 -999 -999
2008-05-06 12:27 51°14.419 2°54.913 -999 -999 -999 -999 -999
2008-05-06 12:28 51°14.48 2°54.653 -999 -999 -999 -999 -999
2008-05-06 12:29 51°14.54 2°54.373 -999 -999 -999 -999 -999
2008-05-06 12:30 51°14.589 2°54.089 -999 -999 -999 -999 -999
2008-05-06 12:31 51°14.591 2°53.802 -999 -999 -999 -999 -999
2008-05-06 12:32 51°14.589 2°53.515 -999 -999 -999 -999 -999
2008-05-06 12:33 51°14.586 2°53.225 -999 -999 -999 -999 -999
2008-05-06 12:34 51°14.59 2°52.931 -999 -999 -999 -999 -999
2008-05-06 12:35 51°14.613 2°52.633 -999 -999 -999 -999 -999
2008-05-06 12:36 51°14.654 2°52.337 -999 -999 -999 -999 -999
2008-05-06 12:37 51°14.703 2°52.046 -999 -999 -999 -999 -999
2008-05-06 12:38 51°14.789 2°51.771 -999 -999 -999 -999 -999
2008-05-06 12:39 51°14.871 2°51.494 -999 -999 -999 -999 -999
2008-05-06 12:40 51°14.951 2°51.219 -999 -999 -999 -999 -999
2008-05-06 12:41 51°15.031 2°50.946 -999 -999 -999 -999 -999
2008-05-06 12:42 51°15.109 2°50.693 -999 -999 -999 -999 -999
2008-05-06 12:43 51°15.134 2°50.587 -999 -999 -999 -999 -999
2008-05-06 12:44 51°15.094 2°50.576 -999 -999 -999 -999 -999
2008-05-06 12:45 51°15.059 2°50.605 -999 -999 -999 -999 -999
2008-05-06 12:46 51°15.001 2°50.607 -999 -999 -999 -999 -999
2008-05-06 12:47 51°14.947 2°50.596 -999 -999 -999 -999 -999
2008-05-06 12:48 51°14.904 2°50.56 -999 -999 -999 -999 -999
2008-05-06 12:49 51°14.87 2°50.509 -999 -999 -999 -999 -999
2008-05-06 12:50 51°14.835 2°50.46 -999 -999 -999 -999 -999
2008-05-06 12:51 51°14.798 2°50.413 -999 -999 -999 -999 -999
2008-05-06 12:52 51°14.757 2°50.373 -999 -999 -999 -999 -999
2008-05-06 12:53 51°14.713 2°50.34 -999 -999 -999 -999 -999
2008-05-06 12:54 51°14.666 2°50.318 -999 -999 -999 -999 -999
2008-05-06 12:55 51°14.616 2°50.306 -999 -999 -999 -999 -999
2008-05-06 12:56 51°14.562 2°50.306 -999 -999 -999 -999 -999
2008-05-06 12:57 51°14.507 2°50.311 -999 -999 -999 -999 -999
2008-05-06 12:58 51°14.453 2°50.304 -999 -999 -999 -999 -999
2008-05-06 12:59 51°14.402 2°50.278 -999 -999 -999 -999 -999
2008-05-06 13:00 51°14.361 2°50.231 -999 -999 -999 -999 -999
2008-05-06 13:01 51°14.336 2°50.164 -999 -999 -999 -999 -999
2008-05-06 13:02 51°14.325 2°50.087 -999 -999 -999 -999 -999
2008-05-06 13:03 51°14.318 2°50.008 -999 -999 -999 -999 -999
2008-05-06 13:04 51°14.315 2°49.93 -999 -999 -999 -999 -999
2008-05-06 13:05 51°14.313 2°49.851 -999 -999 -999 -999 -999
2008-05-06 13:06 51°14.313 2°49.773 -999 -999 -999 -999 -999
2008-05-06 13:07 51°14.315 2°49.695 -999 -999 -999 -999 -999
2008-05-06 13:08 51°14.321 2°49.616 -999 -999 -999 -999 -999
2008-05-06 13:09 51°14.331 2°49.537 -999 -999 -999 -999 -999
2008-05-06 13:10 51°14.347 2°49.458 -999 -999 -999 -999 -999
2008-05-06 13:11 51°14.369 2°49.381 -999 -999 -999 -999 -999
2008-05-06 13:12 51°14.397 2°49.307 -999 -999 -999 -999 -999
2008-05-06 13:13 51°14.43 2°49.236 -999 -999 -999 -999 -999
2008-05-06 13:14 51°14.466 2°49.17 -999 -999 -999 -999 -999
2008-05-06 13:15 51°14.505 2°49.11 -999 -999 -999 -999 -999
2008-05-06 13:16 51°14.547 2°49.05 -999 -999 -999 -999 -999
2008-05-06 13:17 51°14.591 2°48.993 -999 -999 -999 -999 -999
2008-05-06 13:18 51°14.637 2°48.938 -999 -999 -999 -999 -999
2008-05-06 13:19 51°14.689 2°48.897 -999 -999 -999 -999 -999
2008-05-06 13:20 51°14.747 2°48.89 -999 -999 -999 -999 -999
2008-05-06 13:21 51°14.798 2°48.903 -999 -999 -999 -999 -999
2008-05-06 13:22 51°14.825 2°48.92 -999 -999 -999 -999 -999
2008-05-06 13:23 51°14.84 2°48.932 -999 -999 -999 -999 -999
2008-05-06 13:24 51°14.85 2°48.94 -999 -999 -999 -999 -999
2008-05-06 13:25 51°14.856 2°48.949 -999 -999 -999 -999 -999
2008-05-06 13:26 51°14.865 2°48.953 -999 -999 -999 -999 -999
2008-05-06 13:27 51°14.923 2°48.966 -999 -999 -999 -999 -999
2008-05-06 13:28 51°14.963 2°49.097 -999 -999 -999 -999 -999
2008-05-06 13:29 51°14.97 2°49.337 -999 -999 -999 -999 -999
2008-05-06 13:30 51°14.97 2°49.609 -999 -999 -999 -999 -999
2008-05-06 13:31 51°14.963 2°49.887 -999 -999 -999 -999 -999
2008-05-06 13:32 51°14.947 2°50.222 -999 -999 -999 -999 -999
2008-05-06 13:33 51°14.926 2°50.573 -999 -999 -999 -999 -999
2008-05-06 13:34 51°14.905 2°50.923 -999 -999 -999 -999 -999
2008-05-06 13:35 51°14.889 2°51.273 -999 -999 -999 -999 -999
2008-05-06 13:36 51°14.865 2°51.618 -999 -999 -999 -999 -999
2008-05-06 13:37 51°14.841 2°51.963 -999 -999 -999 -999 -999
2008-05-06 13:38 51°14.822 2°52.308 -999 -999 -999 -999 -999
2008-05-06 13:39 51°14.804 2°52.652 -999 -999 -999 -999 -999
2008-05-06 13:40 51°14.778 2°52.995 -999 -999 -999 -999 -999
2008-05-06 13:41 51°14.752 2°53.338 -999 -999 -999 -999 -999
2008-05-06 13:42 51°14.728 2°53.678 -999 -999 -999 -999 -999
2008-05-06 13:43 51°14.706 2°54.022 -999 -999 -999 -999 -999
2008-05-06 13:44 51°14.657 2°54.361 -999 -999 -999 -999 -999
2008-05-06 13:45 51°14.557 2°54.642 -999 -999 -999 -999 -999
2008-05-06 13:46 51°14.449 2°54.873 -999 -999 -999 -999 -999
2008-05-06 13:47 51°14.352 2°55.077 -999 -999 -999 -999 -999
2008-05-06 13:48 51°14.269 2°55.244 -999 -999 -999 -999 -999
2008-05-06 13:49 51°14.186 2°55.375 -999 -999 -999 -999 -999
2008-05-06 13:50 51°14.121 2°55.444 -999 -999 -999 -999 -999
2008-05-06 13:51 51°14.056 2°55.493 -999 -999 -999 -999 -999
2008-05-06 13:52 51°13.974 2°55.548 -999 -999 -999 -999 -999
2008-05-06 13:53 51°13.886 2°55.601 -999 -999 -999 -999 -999
2008-05-06 13:54 51°13.812 2°55.644 -999 -999 -999 -999 -999
2008-05-06 13:55 51°13.771 2°55.702 -999 -999 -999 -999 -999
2008-05-06 13:56 51°13.737 2°55.768 -999 -999 -999 -999 -999
2008-05-06 13:57 51°13.704 2°55.834 -999 -999 -999 -999 -999
2008-05-06 13:58 51°13.682 2°55.898 -999 -999 -999 -999 -999
2008-05-06 13:59 51°13.67 2°55.941 -999 -999 -999 -999 -999